This demonstration page uses our WeatherBlox Daily Observations layout. Learn more.

Left ArrowRight Arrow

39.92423, -83.80882

Hourly Observations for February 17, 2020

Temp ( °F °C ) Dew Point ( °F °C ) Humidity (%) Winds ( mph kmh ) Pressure ( in mb ) Visibility ( mi km ) Precip ( " mm )
12:56 am 00:56 Clear 27 -2.8 27 -2.8 100 100 NE 5 7 30.17 1022 10 16 N/A
1:56 am 01:56 Clear 27 -2.8 27 -2.8 100 100 E 3 6 30.17 1022 8 13 N/A
2:56 am 02:56 Clear with Mist and Fog 26 -3.3 26 -3.3 100 100 E 3 6 30.18 1022 6 10 N/A
3:56 am 03:56 Clear 23 -5 23 -5 100 100 E 5 7 30.17 1022 7 11 N/A
4:56 am 04:56 Clear 24 -4.4 24 -4.4 100 100 E 6 9 30.19 1022 10 16 N/A
5:56 am 05:56 Clear 24 -4.4 23 -5 96 96 E 7 11 30.19 1022 10 16 N/A
6:56 am 06:56 Clear 26 -3.3 26 -3.3 100 100 E 8 13 30.20 1023 10 16 N/A
7:56 am 07:56 Sunny 29 -1.7 27 -2.8 92 92 ESE 9 15 30.21 1023 8 13 N/A
8:56 am 08:56 Mostly Cloudy 31 -0.6 30 -1.1 96 96 ESE 6 9 30.24 1024 10 16 N/A
9:56 am 09:56 Partly Cloudy 35 1.7 30 -1.1 82 82 ESE 12 19 30.24 1024 10 16 0.13 3.30
10:56 am 10:56 Sunny 39 3.9 28 -2.2 65 65 ESE 17 28 30.22 1023 10 16 1.33 33.78
11:56 am 11:56 Sunny 40 4.4 29 -1.7 65 65 E 16 26 30.19 1022 10 16 0.73 18.54
12:56 pm 12:56 Partly Cloudy 43 6.1 31 -0.6 63 63 E 15 24 30.16 1021 10 16 1.48 37.59
1:56 pm 13:56 Mostly Sunny 43 6.1 29 -1.7 58 58 SE 15 24 30.12 1020 10 16 0.08 2.03
2:56 pm 14:56 Cloudy 43 6.1 29 -1.7 58 58 SE 13 20 30.10 1019 10 16 0.49 12.45
3:56 pm 15:56 Cloudy 43 6.1 31 -0.6 63 63 ESE 13 20 30.09 1019 10 16 1.80 45.72
4:56 pm 16:56 Cloudy 43 6.1 32 undefined 65 65 ESE 10 17 30.06 1018 10 16 0.29 7.37
5:56 pm 17:56 Cloudy 42 5.6 31 -0.6 65 65 E 9 15 30.05 1018 10 16 0.24 6.10
6:56 pm 18:56 Cloudy 40 4.4 32 undefined 73 73 E 9 15 30.04 1017 10 16 0.14 3.56
7:56 pm 19:56 Cloudy 42 5.6 30 -1.1 62 62 ESE 14 22 30.01 1016 10 16 0.32 8.13
8:56 pm 20:56 Cloudy 42 5.6 30 -1.1 62 62 ESE 13 20 29.98 1015 10 16 0.03 0.76
9:56 pm 21:56 Cloudy with Light Rain 41 5 33 0.6 73 73 ESE 10 17 29.96 1014 10 16 0.40 10.16
10:56 pm 22:56 Cloudy 42 5.6 31 -0.6 65 65 SE 14 22 29.92 1013 10 16 0.54 13.72
11:56 pm 23:56 Cloudy 42 5.6 32 undefined 68 68 SSE 10 17 29.91 1013 10 16 0.52 13.21

Powered by AerisWeather